Location: Shenandoah County Park
(38.9356°N, 78.4524°W)
Time: 15:09:07
(UTC-05:00)

Vanguard 2 Rocket - Pass Details

Date: 06 December 2023
Orbit: 555 x 3309 km, 32.9° (Epoch: 03 March)

Event Time Altitude Azimuth Distance (km) Brightness Sun altitude
Rises 15:42:37 0° 255° (WSW) 6,379 12.5 10.2°
Reaches altitude 10° 15:46:24 10° 253° (WSW) 5,627 12.5 9.6°
Maximum altitude 16:05:01 72° 174° (S) 3,420 10.1 6.8°
Drops below altitude 10° 16:24:02 10° 95° (E) 5,730 10.5 3.7°
Sets 16:27:56 0° 94° (E) 6,494 10.8 3.1°
